Погода в Вильянди

Погода в Вильянди : погода сейчас, прогноз погоды и архив. Всё, что Вы хотите узнать о погоде в Вильянди!

Поиск расширенной информации на нашем сайте:

Другие новости

Новости СМИ2

Главная страница сайта

Новости сайта

03.07.2017

Напоминаем, что на нашем специализированном сайте Метеоцентр.Азия вы можете получить высокодетализированные автоматические прогнозы погоды по пунктам России, СНГ и мира в авиационном формате (включающие направление и скорость ветра, видимость, явления погоды, количество и форму облачности, нижнюю и верхнюю границу облачности).


Погода в Вильянди - сегодня

Время (UTC), дата Ветер
(°,м/с) 
Видим.   Явления Облачность Т
(°С)
Тd
(°С)
f(%) Тe
(°С)
Pmin
(гПа)
dP
(гПа)
Po
(мм)
O2
(г/м3)
Тmin Tmax R s Состояние
почвы
21 13.03.18 230 (ЮЗ) 4{08}  2800 м  ливневой дождь  10/10 120 м 
[]
+3.6 +3 96 +2  993.4  0.8  737  293  +3.5  +4.5  0.4     
00 14.03.18 240 (ЮЗ) 2{08}  2100 м  в посл. час снег{ливн. осадки}  10/10 60 м 
[]
+2.4 +1.8 96 +2  994.3  0.9  738  294  +2.4  +4.5  0.2     
21 14.03.18 320 (СЗ) 40000 м  слаб. ливневой снег  10/10 750 м 
[]
-3 -7 74 -3  1012.4  1.6  751  307  -3  -0.3       
21 15.03.18 010 (С) 50000 м    ясно 
[]
-8.8 -12.5 75 -9  1020.7  1.6  757  316  -8.8  -2.3       
21 20.03.18 000 (С) 13000 м  слаб. снег{ливн. осадки}  10/10 600 м 
[]
-5.4 -9.1 75 -7  1014.4  2.5  752  310  -5.4  +1.3       
21 22.03.18 270 (З) 4{11}  45000 м  {ливн. осадки}  9/9 240 м 
[]
-0.4 -1.1 95 -3  1001.3  0.6  743  300  -0.5  +1.6  0.2     
03 24.03.18 160 (Ю) 17000 м    ясно 
[]
-10.6 -11.7 92 -10  1009.1  0.1  748  315  -11.3  -1.5       
03 27.03.18 тихо ()   50000 м    ясно 
[]
-9.2 -12.6 76 -9  1016.2  0.5  754  315  -9.5  -1.1       
15 01.04.18 070 (В) 6-11{12}  40000 м    1/0 
[]
+2.1 -3.2 68 -1  1004  -3  745  298  -1  +2.8       
21 01.04.18 060 (СВ) 4{11}  2500 м  слаб. снег  10/10 100 м 
[]
-0.1 -0.5 97 -3  998.4  -3.1  741  299  -0.1  +2.8     
21 03.04.18 070 (В) 26000 м    ясно 
[]
-3.8 -6.8 80 -3  1011.7  0.4  751  307  -3.8  +4.9       
15 09.04.18 220 (ЮЗ) 23000 м    6/6 1500 м 
[]
+21.7 +6.7 38 +22  1005.9  -1.8  747  278  +8.7  +22.2       
15 10.04.18 020 (С) 3{09}  45000 м    ясно 
[]
+5.9 -3.1 52 +5  1021.4  1.1  758  299  +0.5  +6.2       
21 11.04.18 060 (СВ) 16000 м    ясно 
[]
+1.8 -7.9 49 +1  1028.2  0.8  763  306  +1.5  +8.5       
09 14.04.18 070 (В) 29000 м    ясно 
[]
+14.1 -1.9 33 +15  1025.5  -1.1  761  292  +0.9  +14.6       
00 15.04.18 тихо ()   19000 м    ясно 
[]
+2.9 -2.8 66 +3  1020  -1  757  302  +3  +18.7       
15 15.04.18 250 (З) 2{08}  27000 м    1/1 1380 м 
[]
+17.7 +6.3 47 +19  1018.5  -0.9  756  285  +2.7  +18.4       
06 25.04.18 240 (ЮЗ) 5-9{09}  9000 м  в посл. час снег{ливн. осадки}  10/10 100 м 
[]
+6.1 +5.5 96 +4  998.8  0.5  741  291  +6.1  +7.3     
21 06.05.18 290 (З) 50000 м    ясно 
[]
+13.5 +2.5 47 +15  1024.6  -0.1  761  292  +10.9  +19.5       
09 10.05.18 090 (В) 4{09}  35000 м    ясно 
[]
+18.1 +4.4 40 +18  1022.9  0.1  759  286  +6.9  +18.2       
09 12.05.18 100 (В) 27000 м    ясно 
[]
+21 +2.7 30 +21  1025.3  -0.4  761  284  +5.4  +22       
15 21.05.18 070 (В) 35000 м    ясно 
[]
+22.7 +3.4 28 +23  1027  -1.6  763  283  +6.9  +23.7       
09 22.05.18 120 (ЮВ) 24000 м    3/0 
[]
+22 +5.3 34 +22  1022.6  -1.3  759  282  +7.7  +22.9       
15 14.06.18 090 (В) 35000 м    ясно 
[]
+22.8 +7.5 37 +23  1011.8  -0.6  751  278  +10.6  +24.4       
00 19.06.18 230 (ЮЗ) 30000 м    ясно 
[]
+12.6 +10.1 85 +14  1014.1  -0.8  753  288  +12.5  +22.4       
Время (UTC), дата Ветер
(°,м/с) 
Видим.   Явления Облачность Т
(°С)
Тd
(°С)
f(%) Тe
(°С)
Pmin
(гПа)
dP
(гПа)
Po
(мм)
O2
(г/м3)
Тmin Tmax R s Состояние
почвы

Для получения пояснительной информации подведите курсор к названию столбца.

ПОГОДА в Вильянди - архив

Всё, что Вы хотите узнать о погоде в Вильянди - удобно и подробно!

Выберите нужную дату (начиная с 1 января 2015* года) и нажмите кнопку "Найти".
Будут отображены архивные сводки погоды по пункту Вильянди, начиная с указанной даты.


Отображать данные в формате CSV (для использования в таблицах Excel)


Внимание! Наш архив погоды предназначен исключительно для личного некоммерческого использования в познавательных целях. Если Вам необходимы официальные справки о состоянии погоды (для производственных, юридических, коммерческих и т.п. целей), обращайтесь в органы Росгидромета.

*Примечание: данная дата относится к архиву по метеостанциям СССР (Россия, СНГ, Балтия).
Архив по метеостанциям Зарубежной Европы и Азии (кроме Китая) хранится 10 дней, по другим регионам земного шара (Китай, Африка, Америка, Австралия, Океания) - 1 день.

Вильянди - район местоположения метеостанции


Название, широта, долгота, высота метеостанции:
Вильянди 58.4°ш. 25.6°д. 87 м над ур. моря [Эстония]

Дополнительная информация

В oтличие oт бoльшинства пoгoдных сайтoв мы публикуем пoдрoбную метеoинфoрмацию в детальнoм прoфессиoнальнoм фoрмате.

Характеристики температуры и влажнoсти вoздуха измеряются на высoте 2 м в тени вдали oт зданий и деревьев.
Скoрoсть ветра измеряется на высoте 10 м (на урoвне рoста челoвека скoрoсть ветра ниже в 1.5-2 раза). Если метеoстанция нахoдится в гoрoде или в лесу, тo скoрoсть ветра занижена на 2-4 м/с пo сравнению с oткрытым местoм. Скoрoсть ветра над акватoриями крупных рек и oзёр, а также на вершинах хoлмoв на 2-5 м/с выше, чем в oбычных услoвиях.
Атмoсфернoе давление в разных тoчках местнoсти мoжет значительнo oтличаться oт давления на метеoстанции, в зависимoсти oт услoвий рельефа (при пoдъёме на 10 м давление пoнижается примернo на 1 мм рт.ст.).